AirNav   Jet Aviation Boston
 
 1490 users online  

O32 Reedley Municipal Airport
Reedley, California, USA

GOING TO REEDLEY?


FAA INFORMATION EFFECTIVE 24 MAY 2018

Location

FAA Identifier: O32
Lat/Long: 36-40-15.6000N / 119-27-03.7000W
36-40.260000N / 119-27.061667W
36.6710000 / -119.4510278
(estimated)
Elevation: 386 ft. / 117.7 m (surveyed)
Variation: 18E (1980)
From city: 4 miles N of REEDLEY, CA
Time zone: UTC -7 (UTC -8 during Standard Time)
Zip code: 93654

Airport Operations

Airport use: Open to the public
Activation date: 12/1945
Control tower: no
ARTCC: OAKLAND CENTER
FSS: RANCHO MURIETA FLIGHT SERVICE STATION
NOTAMs facility: RIU (NOTAM-D service available)
Attendance: MON-FRI 0800-1700
Pattern altitude: 1386 ft. MSL
Wind indicator: lighted
Segmented circle: yes
Lights: ACTVT PAPI RWYS 15 & 33; MIRL RWY 15/33; TWY LGTS - CTAF.
Beacon: white-green (lighted land airport)
Operates sunset to sunrise.

Airport Communications

CTAF/UNICOM: 122.7
WX AWOS-3PT: 120.175 (559-637-9453)
WX ASOS at FAT (14 nm NW): PHONE 559-255-3413
WX AWOS-3 at FCH (18 nm W): 135.225 (559-488-1040)

Nearby radio navigation aids

VOR radial/distance  VOR name  Freq  Var
VISr349/18.3VISALIA VOR/DME109.4016E
CZQr111/21.7CLOVIS VORTAC112.9015E
FRAr148/26.9FRIANT VORTAC115.6017E

 
NDB name  Hdg/Dist  Freq  Var  ID
SALYER FARMS350/36.520516ECOR -.-. --- .-.

Airport Services

Fuel available: 100LL JET-A
FUEL AVBL 24 HRS COMPUTERIZED CREDIT CARD.
Parking: tiedowns
Airframe service: MAJOR
Powerplant service: MAJOR
Bottled oxygen: NONE
Bulk oxygen: NONE

Runway Information

Runway 15/33

Dimensions: 3300 x 60 ft. / 1006 x 18 m
Surface: asphalt, in fair condition
Weight bearing capacity: 
Single wheel: 12.0
Runway edge lights: medium intensity
RUNWAY 15  RUNWAY 33
Latitude: 36-40.526232N36-39.994235N
Longitude: 119-27.131193W119-26.990828W
Elevation: 386.0 ft.384.1 ft.
Gradient: 0.2%0.2%
Traffic pattern: leftright
Runway heading: 150 magnetic, 168 true330 magnetic, 348 true
Markings: basic, in fair conditionbasic, in fair condition
Visual slope indicator: 2-light PAPI on left (3.00 degrees glide path)2-light PAPI on left (4.00 degrees glide path)
Runway end identifier lights: nono
Touchdown point: yes, no lightsyes, no lights
Obstructions: 12 ft. trees, 545 ft. from runway, 125 ft. left and right of centerline, 28:1 slope to clear75 ft. tree, 1800 ft. from runway, 50 ft. right of centerline, 21:1 slope to clear

Airport Ownership and Management from official FAA records

Ownership: Publicly-owned
Owner: CITY OF REEDLEY
100 N. EAST AVE
REEDLEY, CA 93654
Phone 559-637-4203
Manager: JOEL GLICK
100 N. EAST AVE
REEDLEY, CA 93654-3103
Phone 559-637-4203
AIRPORT MANAGER (559) 799-8861

Airport Operational Statistics

Aircraft based on the field: 46
Single engine airplanes: 41
Ultralights: 5
    
Aircraft operations: avg 90/day *
61% local general aviation
39% transient general aviation
* for 12-month period ending 20 July 2017

Instrument Procedures

There are no published instrument procedures at O32.

Some nearby airports with instrument procedures:

KFAT - Fresno Yosemite International Airport (14 nm NW)
KFCH - Fresno Chandler Executive Airport (18 nm W)
KVIS - Visalia Municipal Airport (21 nm S)
KHJO - Hanford Municipal Airport (23 nm S)
KTLR - Mefford Field Airport (31 nm S)
 
Loc | Ops | Rwys | IFR | FBO | Links
Com | Nav | Svcs | Stats | Notes

AirNav Hotels Sweepstakes
 
Area around O32 (Reedley Municipal Airport)
 
Road maps at: MapQuest Bing Google
 
Aerial photo
WARNING: Photo may not be current or correct
Aerial photo of O32 (Reedley Municipal Airport)
Do you have a better or more recent aerial photo of Reedley Municipal Airport that you would like to share? If so, please send us your photo.

 
Sectional chart

 
Airport distance calculator
Flying to Reedley Municipal Airport? Find the distance to fly.

From to O32

Sunrise and sunset
Times for 24-May-2018
 Local
(UTC-7)
 Zulu
(UTC)
Morning civil twilight05:1612:16
Sunrise05:4512:45
Sunset20:0403:04
Evening civil twilight20:3403:34

Current date and time
Zulu (UTC)  24-May-2018 19:07:23
Local (UTC-7)  24-May-2018 12:07:23
 
METAR
KFAT 
14nm NW 
241853Z 29006KT 10SM CLR 23/10 A3001 RMK AO2 SLP158 T02280100
KFCH 
18nm W 
241855Z AUTO VRB05KT 10SM CLR 22/10 A3000 RMK A01
KVIS 
21nm S 
241856Z AUTO 29005KT 10SM CLR 22/11 A3001 RMK AO2 SLP168 T02220111
KHJO 
23nm S 
241853Z AUTO 00000KT 10SM CLR 23/11 A3001 RMK AO2 SLP163 T02280106
TAF
KFAT 
14nm NW 
241730Z 2418/2518 31010KT P6SM SCT200 FM242300 32012G18KT P6SM SCT200 FM251100 33011KT P6SM OVC050 PROB30 2511/2513 P6SM -SHRA BKN025 OVC050 FM251300 32009KT P6SM -SHRA BKN025 OVC050
NOTAMs
Click for the latest NOTAMs
NOTAMs are issued by the DoD/FAA and will open in a separate window not controlled by AirNav.

 

 
 

FBO, Fuel Providers, and Aircraft Ground Support

  
 Business Name 
 
 Contact 
 
 Services / Description 
 
Fuel Prices
 
Comments
  
BSMITH Air 559-859-0374
[web site]
[email]
Aviation fuel, Aircraft parking (ramp or tiedown), Passenger terminal and lounge, Flight training, Aircraft rental, Aerial tours / aerial sightseeing, ...

More info about BSMITH Air
independent
100LL Jet A
SS $5.38 $4.59 
 Updated 18-May-2018
 
   write
SS=Self service
Update Fuel Prices
 

Would you like to see your business listed on this page?

 If your business provides an interesting product or service to pilots, flight crews, aircraft, or users of the Reedley Municipal Airport, you should consider listing it here.  To start the listing process, click on the button below
 
Add a business
 

Other Pages about Reedley Municipal Airport

Airport Commission web page
 
Update a link
 
Copyright © AirNav, LLC. All rights reserved. Privacy Policy  Contact